Theta_e
309 303 307 308 309 309 309 309 310 309 308 308 307 307 307 307 307 308 309 309 308 306 307 308 307 308 308 308 310 308 308 309 309 311 312 312 315 313 313 314 314 317 318 317 318 322 327 319 320 321 325 323 322 321
304 309 309 309 309 310 310 309 309 308 306 307 309 310 311 309 308 309 309 310 309 308 308 307 307 308 308 308 308 308 308 308 307 309 309 309 310 313 311 315 313 315 314 314 316 316 317 317 318 317 318 318 318 318
309 308 309 309 310 311 310 308 307 307 309 311 312 312 310 309 309 309 309 309 309 307 307 308 309 309 309 309 309 308 307 307 307 307 307 308 310 309 312 312 310 311 312 312 313 314 314 316 316 316 316 316 317 316
309 309 309 310 311 310 308 307 308 310 312 312 313 311 311 310 309 309 309 308 308 307 307 310 310 310 309 308 308 308 307 306 306 306 306 309 309 307 309 309 309 310 311 310 310 311 311 314 312 312 313 313 316 317
309 309 311 311 311 308 307 310 312 312 313 313 311 312 310 310 310 310 308 308 306 307 308 308 310 310 310 309 308 307 306 306 306 305 306 306 306 306 307 308 311 308 308 310 310 309 309 309 310 310 310 311 313 315
309 311 311 311 309 308 312 312 313 313 313 312 312 311 311 311 311 311 310 309 308 307 307 310 311 311 310 310 307 306 305 305 304 303 302 302 304 304 306 307 307 308 307 306 307 309 309 310 310 311 310 310 311 313
311 312 311 309 308 312 313 313 313 313 313 311 312 311 311 310 310 311 311 308 307 306 308 312 315 313 311 310 309 307 306 304 303 301 301 301 302 304 303 307 306 307 309 310 312 314 313 311 311 314 316 314 312 313
312 312 309 308 312 313 313 313 313 313 312 311 312 313 312 313 313 312 310 309 308 308 307 313 316 315 312 312 310 308 306 304 304 303 303 301 302 301 304 304 308 308 310 315 317 317 317 316 316 317 317 316 314 313
312 311 308 312 313 313 312 313 313 314 314 314 314 315 315 314 314 313 311 311 309 309 312 314 316 318 313 313 310 307 307 308 305 305 307 304 302 306 309 309 309 309 309 313 315 315 315 314 314 316 317 316 314 314
312 311 309 312 313 313 312 312 313 314 316 316 316 317 318 316 314 314 313 313 313 313 312 314 314 318 316 314 314 312 307 312 314 314 309 310 311 311 308 308 309 311 308 309 311 313 316 314 313 314 314 314 313 313
312 311 310 312 313 313 313 313 314 318 319 319 320 320 316 315 315 316 319 319 319 316 317 314 316 319 318 317 316 315 317 316 316 315 315 312 312 312 310 307 307 308 310 308 309 311 311 314 314 314 315 315 315 315
312 310 310 313 313 313 315 316 315 318 318 315 316 318 320 319 319 321 321 321 322 321 321 321 319 319 318 316 315 317 319 318 317 313 312 312 312 311 310 309 306 306 308 309 309 309 310 310 311 311 311 312 312 311
312 311 309 312 312 312 314 316 317 316 317 320 320 322 321 319 317 319 320 321 321 318 317 319 322 319 320 319 319 319 319 318 315 313 310 313 312 310 310 309 306 305 306 308 309 308 309 309 309 310 310 308 309 311
312 312 309 311 312 312 313 317 317 318 318 321 319 314 321 322 319 319 317 316 315 314 315 319 320 321 320 320 318 319 318 314 312 312 312 311 312 310 309 309 308 304 305 307 309 309 308 307 308 308 309 309 308 306
312 313 311 313 313 312 314 318 318 318 320 320 319 316 321 317 316 315 314 314 313 314 315 318 320 317 318 318 315 315 315 314 312 314 313 311 310 309 308 307 308 304 303 304 307 309 309 308 306 306 307 307 305 305
314 316 316 316 314 314 316 319 319 320 320 318 318 319 318 316 316 315 314 314 313 314 315 317 317 317 315 314 313 313 313 314 313 314 311 311 309 306 306 307 307 305 303 304 306 307 309 308 308 307 306 307 307 305
314 320 316 314 314 316 319 319 322 319 319 319 319 318 317 316 315 315 314 313 313 314 317 315 314 316 314 312 312 311 313 311 308 311 311 310 310 309 308 308 307 305 304 304 306 306 307 308 306 306 306 306 304 304
313 313 312 313 316 320 323 320 320 319 319 318 319 317 318 317 315 314 314 312 313 312 313 316 312 313 312 311 311 310 308 307 306 306 309 311 309 307 308 307 304 305 304 304 305 306 305 305 305 305 304 304 303 304
312 312 312 313 316 320 323 320 321 322 319 318 318 317 317 317 316 315 314 313 312 312 312 312 313 312 312 309 309 307 307 306 305 306 306 305 305 304 306 305 304 304 305 304 304 304 304 304 303 303 303 301 301 301
313 313 312 315 318 322 325 321 321 323 320 319 319 318 318 318 318 316 314 313 313 313 312 313 313 311 310 309 308 307 307 306 306 306 306 304 303 304 305 304 303 304 303 304 303 302 302 302 301 302 302 300 300 300
316 322 315 318 325 323 322 319 321 321 320 320 320 320 320 319 318 316 315 314 314 312 313 313 311 311 310 309 309 308 308 306 305 304 305 304 303 303 304 303 303 303 303 303 303 302 301 300 301 301 301 300 300 300
320 317 316 326 325 324 322 321 319 320 321 321 321 320 319 319 318 316 315 315 314 313 312 312 312 309 310 310 310 309 308 307 305 304 303 303 303 302 303 303 302 303 302 302 302 301 301 300 300 300 300 301 300 300
316 318 325 326 323 322 318 320 322 322 322 320 320 320 319 318 317 316 317 315 314 313 312 313 310 310 311 310 310 310 309 306 304 303 303 303 302 301 302 302 302 302 301 301 302 301 301 300 300 300 299 300 301 301
324 324 326 325 324 320 321 322 323 321 320 321 322 321 320 319 318 318 320 315 312 312 312 311 310 310 310 311 310 306 304 303 302 302 302 301 301 301 301 301 301 300 300 300 301 301 301 300 300 300 299 299 300 300
325 321 323 321 319 321 322 322 320 320 321 320 321 322 320 317 317 319 319 315 314 313 312 312 311 310 309 308 306 304 303 302 301 301 301 300 300 300 300 300 300 300 299 299 300 300 300 300 299 299 299 299 300 299
312 321 320 323 322 322 320 320 322 317 319 318 320 319 320 320 319 319 318 316 314 314 313 312 311 310 309 308 305 304 303 302 301 301 301 300 300 299 299 300 299 298 297 299 299 299 299 299 299 299 299 299 298 298
313 322 322 321 320 319 321 318 318 321 322 320 319 320 321 321 319 313 314 316 315 314 313 312 310 309 308 307 305 304 303 302 302 302 301 301 300 300 299 299 298 298 298 298 297 297 298 297 298 298 298 298 298 298
324 324 323 321 323 322 319 319 319 321 323 321 321 321 319 321 318 313 315 314 315 314 313 311 310 308 308 307 306 305 304 303 302 301 302 302 301 300 299 299 298 298 298 298 297 297 296 296 297 297 298 298 297 297
323 323 323 324 323 324 323 322 322 322 321 322 321 319 319 316 316 316 315 314 315 314 312 311 311 310 308 307 306 303 302 302 302 301 301 301 300 300 299 298 298 298 298 298 297 296 296 296 296 297 297 297 297 298
324 324 324 324 325 324 322 321 321 320 322 320 320 319 318 316 315 315 316 314 312 311 310 309 309 308 306 304 303 302 301 301 301 301 300 299 300 299 298 298 298 298 298 297 298 298 297 297 297 297 296 296 296 297
323 322 320 320 323 322 322 322 321 319 320 318 315 316 319 317 314 313 314 312 311 310 309 307 306 305 303 302 301 301 301 300 300 299 299 299 298 297 297 297 298 298 298 297 297 297 297 296 296 296 296 296 296 296
322 323 323 324 321 319 321 321 322 319 319 317 315 317 319 316 317 315 310 309 308 307 306 305 304 302 302 301 301 300 300 300 299 298 296 295 294 295 296 296 296 296 297 297 297 297 296 296 296 296 296 296 296 296
322 322 323 321 321 320 319 320 320 319 322 320 319 320 319 319 315 313 310 308 306 306 305 304 303 302 301 301 301 300 300 299 298 297 296 295 294 294 294 294 295 295 296 296 296 296 296 296 296 296 296 296 296 295
Wind_Speed
19 21 23 26 28 30 30 30 28 26 24 22 21 21 20 19 12 9 14 13 11 6 19 11 10 13 13 10 4 16 10 6 5 7 4 3 4 4 3 7 11 5 2 1 2 4 4 21 19 18 4 18 22 26
18 21 25 27 29 29 30 28 25 23 22 21 23 25 24 15 9 7 10 7 3 13 14 23 18 12 11 18 21 6 8 15 8 4 4 3 5 2 10 4 11 5 2 3 7 5 5 11 21 26 28 21 25 24
19 23 26 28 29 29 28 25 23 22 22 24 25 24 15 9 4 3 5 6 4 5 12 10 5 12 4 8 10 3 3 10 8 13 7 4 4 7 7 5 10 10 13 3 11 12 17 25 20 27 35 35 23 21
23 26 27 28 27 26 24 22 22 23 25 23 20 12 12 8 7 7 4 3 1 2 2 5 14 11 16 17 6 2 5 10 11 8 4 2 3 12 4 6 3 8 14 17 14 10 29 16 27 29 35 35 32 32
26 27 28 27 24 22 21 22 24 25 23 18 10 12 9 11 13 10 9 9 8 2 1 7 5 11 17 19 15 9 3 6 9 7 3 3 5 4 5 4 3 10 8 5 9 32 25 37 43 38 35 36 30 30
27 27 27 24 20 19 22 24 25 23 19 8 10 11 11 10 8 6 1 2 6 4 1 2 5 9 14 15 17 17 15 7 5 4 4 5 5 5 3 3 7 24 33 33 33 37 43 48 43 44 37 42 36 27
26 25 24 20 17 20 24 24 22 20 8 7 10 10 9 9 8 2 2 3 2 3 3 3 2 3 9 11 12 12 12 7 5 2 1 1 3 2 1 2 21 40 44 37 28 28 26 32 28 25 26 28 21 25
24 23 20 16 19 22 23 22 20 11 6 4 6 9 7 10 10 8 9 6 6 4 1 3 1 4 0 2 3 6 5 4 3 1 0 1 2 1 3 13 31 42 43 27 21 10 18 24 30 31 26 23 25 26
22 21 15 15 19 22 23 22 16 7 7 5 4 5 6 6 3 7 7 5 4 2 3 2 1 2 4 2 2 2 1 1 1 1 2 3 1 3 11 26 34 41 45 39 30 21 15 14 21 26 25 20 20 22
21 18 12 14 18 20 21 20 10 4 4 2 5 4 2 4 8 4 3 3 3 2 2 4 2 1 4 3 4 6 4 2 1 2 7 2 1 11 25 28 31 32 47 48 46 40 24 15 14 8 3 10 15 19
19 16 11 13 15 18 19 16 5 3 6 5 3 2 6 7 4 2 3 3 1 3 6 6 9 2 5 2 2 6 2 3 0 3 1 3 3 18 23 31 35 35 35 47 42 39 44 34 28 30 24 18 12 13
17 14 9 10 13 15 14 12 6 4 2 5 3 5 6 2 2 4 3 2 3 4 4 4 8 6 3 3 3 7 3 3 4 4 3 4 5 24 22 25 34 35 31 37 43 42 42 40 40 41 40 38 36 37
17 14 9 9 11 14 12 9 10 6 6 6 4 4 3 3 4 2 2 3 3 5 17 6 5 1 3 8 7 1 4 3 5 3 3 3 16 21 22 22 27 33 32 25 31 38 31 38 35 34 34 33 35 40
16 14 9 9 11 13 10 7 9 12 5 3 2 6 2 2 3 3 7 8 17 20 23 11 1 7 4 4 3 3 3 5 3 5 3 5 17 17 20 22 21 30 26 28 19 25 32 35 33 31 35 32 34 39
16 12 6 11 12 12 7 3 6 11 4 4 1 1 3 8 15 18 19 17 21 23 21 8 1 8 3 3 4 4 4 4 2 2 2 11 12 14 16 21 21 22 26 24 23 18 19 24 30 32 29 33 33 28
13 7 11 16 13 4 1 3 4 6 5 4 4 5 10 12 13 15 16 17 23 25 21 3 4 3 5 3 4 6 3 2 3 2 4 7 11 16 16 17 18 15 23 23 19 19 12 14 20 22 25 26 23 29
10 7 14 17 12 1 1 6 4 3 3 3 1 9 9 9 10 14 15 18 21 15 5 6 5 6 4 3 1 2 2 4 14 6 2 6 6 11 14 16 14 12 17 21 18 16 18 11 14 16 18 19 22 21
9 13 14 13 12 2 2 4 3 4 3 1 4 8 12 9 10 11 12 15 16 17 14 5 8 4 2 3 4 5 13 15 15 18 12 5 7 10 10 14 15 15 10 15 15 13 14 13 19 16 17 16 18 16
10 11 10 9 8 5 3 2 3 4 5 3 5 11 9 7 3 5 9 12 10 11 11 7 4 5 5 8 9 11 13 13 15 18 13 13 15 13 9 10 14 17 7 9 12 16 17 15 15 13 12 16 17 15
10 10 6 7 6 3 4 3 4 5 1 0 3 3 4 3 5 1 6 7 10 9 5 4 5 10 9 6 6 6 7 10 11 14 14 12 16 9 14 10 12 13 12 9 12 12 13 10 21 16 13 15 15 13
7 6 9 5 3 3 4 4 3 1 6 5 11 5 2 7 3 6 3 5 7 5 4 8 10 6 3 2 2 4 3 8 9 12 15 11 13 15 11 10 10 9 11 10 11 13 13 13 18 13 16 11 17 15
6 9 5 3 3 3 4 4 5 7 6 7 9 8 4 6 2 4 3 4 5 7 5 4 3 2 3 4 6 6 4 6 9 11 12 12 12 15 14 12 12 8 10 14 11 8 10 11 13 12 11 17 10 15
4 3 3 4 3 2 5 5 4 5 3 3 5 4 4 2 3 1 3 5 4 5 7 2 7 9 10 8 9 8 4 6 10 12 12 9 11 13 12 12 9 8 9 11 14 11 8 9 9 10 9 12 20 18
7 2 4 3 5 4 5 6 9 7 5 5 5 7 4 1 5 3 4 2 10 8 6 5 5 8 15 6 4 7 6 8 11 12 11 11 11 11 12 13 13 11 8 12 15 8 9 10 10 10 11 11 12 17
3 3 3 5 5 5 6 8 7 5 9 18 6 3 4 10 3 3 7 8 17 16 7 4 3 4 7 9 6 10 10 10 10 11 11 9 9 9 10 13 11 7 7 12 15 12 11 11 11 9 7 12 11 12
0 4 6 5 3 4 3 5 5 4 3 4 5 8 5 3 3 2 4 11 7 8 4 2 3 4 5 6 6 5 5 4 5 5 4 5 5 7 6 8 11 16 9 9 10 11 12 11 10 11 9 9 8 8
2 6 10 8 8 10 5 13 13 2 3 4 3 3 2 1 4 5 9 19 4 2 2 2 3 3 2 2 4 5 6 5 2 4 3 4 3 7 7 7 7 10 7 7 6 10 8 10 9 9 8 7 8 6
6 12 8 12 8 8 7 8 3 4 3 5 5 4 1 3 3 5 7 7 1 3 1 2 3 4 5 2 5 5 5 5 0 6 4 5 3 6 6 7 10 9 7 3 3 5 5 5 4 6 7 6 5 4
8 9 12 14 16 4 4 8 8 9 13 15 4 2 5 9 15 12 9 2 2 3 7 7 2 6 5 4 4 10 11 10 9 9 9 10 7 9 8 8 7 7 7 7 5 5 7 3 4 5 6 6 4 2
13 11 10 15 12 4 7 7 13 16 23 14 6 29 29 20 13 10 10 7 8 8 7 7 4 6 9 11 11 13 17 10 10 10 11 11 9 6 8 9 8 6 4 5 5 5 6 4 3 5 5 5 5 5
13 2 2 17 13 16 10 5 4 9 7 16 24 20 8 13 10 5 3 7 8 4 7 11 13 13 14 12 9 8 10 10 8 6 1 4 5 6 8 8 7 6 4 3 4 4 4 4 4 4 5 5 5 5
14 4 4 6 10 7 5 6 4 9 11 19 12 15 9 3 4 3 9 9 9 12 13 11 13 14 11 10 9 7 3 3 11 12 17 12 9 8 5 8 9 7 6 4 4 5 6 5 5 5 5 5 5 5
2 6 17 6 7 10 7 2 3 7 11 13 6 5 5 6 7 3 3 6 7 8 9 9 9 9 10 8 6 3 7 9 10 15 17 17 12 6 10 7 8 8 8 8 7 6 6 6 5 5 5 6 6 6
Wind_Direction
323 323 328 329 329 330 330 329 326 326 328 331 331 327 321 316 310 294 289 296 269 249 288 292 286 285 296 301 306 330 330 4 2 8 355 334 4 321 298 34 357 46 255 205 321 338 360 337 358 48 15 42 40 27
328 330 331 331 329 330 330 330 328 328 333 338 332 328 325 322 317 288 290 315 307 249 278 303 304 287 298 285 287 309 302 335 8 1 350 346 303 337 338 20 353 20 120 203 342 344 326 29 314 8 16 22 16 21
332 332 331 331 330 332 331 331 330 334 337 336 332 331 334 333 308 265 278 304 294 265 314 343 33 353 338 309 303 296 351 5 5 3 310 322 328 8 6 29 0 329 6 317 353 340 333 327 357 354 353 351 346 346
335 333 331 331 334 333 332 333 334 335 338 339 341 358 2 24 78 104 77 37 57 358 356 46 4 5 5 13 323 337 280 307 335 1 340 336 338 23 327 319 298 13 348 339 301 310 342 308 315 329 327 332 337 347
333 332 331 335 337 334 334 335 335 340 343 349 14 9 36 89 88 82 72 49 52 83 315 308 356 349 1 15 34 35 358 330 359 6 3 6 338 348 334 282 350 11 331 313 285 299 289 281 292 300 306 306 314 323
330 334 335 339 338 337 337 336 341 345 349 40 36 42 69 76 68 102 4 17 21 17 61 2 344 2 22 37 47 53 54 58 53 38 15 357 341 355 332 304 316 313 302 286 275 282 279 276 281 284 287 286 286 301
335 338 339 340 342 340 338 342 346 351 14 84 59 65 68 67 59 61 355 323 328 87 352 260 151 5 54 48 38 37 40 50 66 70 52 322 313 333 312 269 309 316 311 296 287 286 274 272 269 294 296 290 280 276
340 342 342 344 343 340 343 348 352 4 41 104 73 56 57 55 36 1 18 31 133 99 333 299 28 190 99 28 33 25 44 52 44 45 158 206 311 164 271 283 335 355 2 357 351 315 274 290 286 283 282 286 280 262
343 346 342 345 342 343 347 351 358 37 71 59 52 33 37 31 16 315 330 21 53 112 314 292 335 345 190 138 110 82 75 355 311 357 204 133 336 30 339 351 357 8 5 1 9 4 346 325 284 272 270 278 276 269
345 345 340 343 344 344 345 348 3 55 43 18 17 36 305 285 328 317 305 356 351 6 248 246 156 298 305 153 208 168 182 215 268 138 143 84 21 25 27 7 10 8 21 17 14 8 14 14 27 39 306 294 287 284
344 342 336 343 348 348 351 352 15 11 8 1 357 285 325 310 334 336 267 209 337 304 230 221 202 276 266 210 241 205 189 187 342 116 61 3 359 3 16 16 17 16 27 28 25 27 37 47 61 53 48 46 13 316
340 338 330 341 353 357 4 10 7 5 5 305 324 311 320 340 258 264 300 228 188 249 233 199 203 219 310 177 211 193 238 200 77 80 52 359 355 0 8 15 20 17 17 34 29 34 39 42 44 48 51 45 41 41
340 338 325 329 340 355 360 1 8 344 304 293 275 220 241 245 11 283 269 259 314 341 326 349 31 279 193 213 238 328 23 53 74 55 332 39 354 5 5 11 20 18 15 18 38 38 41 48 51 51 50 45 50 50
339 337 324 320 330 340 352 352 345 340 305 254 277 333 191 319 235 4 12 354 355 347 323 357 62 200 209 196 18 62 55 32 53 2 341 304 347 5 9 7 14 20 16 18 21 38 46 52 48 44 54 51 51 52
338 337 343 337 331 332 340 63 357 330 295 273 232 266 292 1 20 18 11 352 352 328 317 329 252 38 24 46 26 32 49 39 37 292 245 323 5 9 7 6 11 15 15 15 21 20 36 48 50 52 51 50 50 52
343 357 357 349 342 337 169 327 331 324 319 325 295 16 8 25 6 3 5 3 343 333 343 79 76 37 46 44 29 24 56 299 285 108 9 350 0 3 2 5 3 11 16 17 16 32 39 47 52 51 48 42 42 46
335 333 341 347 349 239 319 311 253 255 249 245 346 24 37 47 19 10 12 1 352 353 351 27 26 34 51 41 44 87 23 25 12 11 11 340 353 349 345 348 2 7 17 15 25 31 49 61 68 64 62 57 57 53
314 309 321 330 346 319 252 310 272 272 242 43 357 11 26 57 39 10 25 16 13 12 359 357 72 53 84 30 32 31 27 23 0 346 333 359 355 345 341 351 7 360 19 20 28 32 38 41 48 59 50 59 55 56
316 319 320 329 339 320 297 254 266 275 229 98 40 24 0 358 353 14 38 26 25 34 27 16 41 44 49 48 27 17 17 21 343 333 8 14 8 350 8 8 6 354 26 45 38 44 40 37 41 44 57 52 39 39
312 317 319 331 328 299 268 201 273 268 316 112 266 267 306 272 308 349 36 55 36 36 41 41 49 59 51 40 19 21 355 359 346 341 348 1 350 351 340 12 2 9 23 33 51 49 35 27 23 30 52 62 45 31
316 318 327 320 287 261 288 298 289 356 309 287 275 249 278 295 294 60 16 319 80 77 40 53 54 39 349 277 273 338 285 339 346 325 319 344 349 356 4 2 1 22 32 21 42 41 32 23 22 36 32 42 40 47
283 303 299 284 280 232 268 231 295 303 278 271 289 273 240 227 39 47 302 273 123 128 126 110 22 7 259 250 271 261 252 305 336 349 354 351 9 347 358 4 7 36 38 26 20 56 47 24 29 39 28 29 25 43
321 308 294 244 259 267 268 270 263 229 257 274 329 286 264 157 139 134 209 254 115 149 139 139 343 314 287 282 300 266 228 340 358 7 2 22 12 3 357 359 16 57 33 27 22 31 64 39 28 33 28 25 41 79
335 280 281 285 224 238 255 224 240 239 237 257 256 256 250 171 44 353 264 117 127 140 128 92 17 18 26 244 66 110 61 21 18 13 32 25 14 4 8 22 59 53 34 19 24 41 22 35 39 52 47 33 47 52
274 244 245 257 247 254 265 274 267 298 7 340 288 250 144 144 167 274 300 124 122 131 133 56 34 9 4 21 57 78 53 44 33 12 19 23 20 18 20 40 51 37 30 17 16 24 24 40 45 65 76 53 57 61
53 221 198 269 241 236 290 308 7 159 178 185 284 343 56 118 177 78 2 328 127 137 123 64 92 54 55 18 36 24 348 336 3 22 14 23 40 45 21 12 19 10 35 13 25 22 28 39 40 58 61 56 49 48
265 239 208 231 266 289 300 48 11 356 287 230 246 266 192 10 106 206 275 292 238 109 46 132 84 51 341 28 11 6 8 333 328 4 215 49 65 46 31 50 49 25 29 31 36 20 30 36 36 46 54 57 48 47
249 291 300 296 257 79 137 196 257 245 255 227 245 252 174 82 159 188 95 113 103 63 112 275 291 275 311 299 337 324 322 311 160 45 83 67 21 16 33 28 38 35 7 335 11 10 21 28 43 48 51 58 62 63
248 276 291 286 292 330 118 186 210 229 240 255 258 17 86 110 127 103 98 316 300 5 355 345 309 347 34 23 35 38 34 57 48 52 36 41 44 47 27 21 17 28 30 21 45 53 38 38 67 90 55 46 47 121
236 244 238 263 264 232 220 242 264 295 308 317 38 109 111 103 82 43 59 50 28 6 5 1 38 32 50 46 46 49 45 42 49 51 32 21 41 24 23 10 5 5 16 14 43 58 33 21 59 68 70 66 57 47
242 147 7 277 309 312 261 1 195 291 4 77 58 80 81 79 64 76 44 4 356 32 29 64 67 56 46 41 48 47 53 53 56 35 48 20 11 359 10 5 11 22 21 37 27 31 42 51 52 51 53 59 49 41
276 210 273 277 300 329 17 15 323 337 88 76 91 113 119 105 145 106 28 20 33 53 63 60 65 62 63 54 53 84 123 26 0 17 14 14 16 49 50 54 38 27 35 19 4 48 44 31 43 37 42 52 45 32
310 227 263 290 316 298 340 174 346 322 86 88 118 86 107 103 71 91 30 36 61 59 65 67 74 82 70 55 41 29 13 18 32 18 27 29 32 22 22 45 63 39 38 33 49 55 44 37 38 30 38 40 43 39